RH
71 71 71 70 70 70 67 64 58 51 48 47 43 41 42 42 44 43 48 53 53 58 66 83 81 78 78 77 78 80 81 82 82 84 87 89 90 91 91 91 91 91 90
71 70 71 73 73 71 68 67 63 54 49 47 44 43 40 39 36 36 40 42 45 49 50 51 77 80 82 83 83 82 82 82 83 84 84 84 85 86 87 88 89 88 88
70 70 73 74 78 78 72 71 65 58 54 50 48 48 47 44 40 38 39 39 40 39 40 42 44 48 60 79 80 83 87 89 89 89 88 86 86 87 87 88 89 91 90
69 68 73 74 76 78 76 67 63 60 56 58 57 53 48 47 43 42 41 42 45 47 48 51 54 56 58 75 86 88 88 89 89 90 90 90 91 93 90 87 84 83 86
69 67 73 73 76 74 71 69 66 64 64 63 59 46 46 49 45 44 48 51 53 52 48 44 42 42 38 40 73 85 87 89 90 88 88 90 90 89 88 86 83 80 86
70 68 74 73 74 73 71 71 72 72 70 65 51 51 51 49 47 47 55 54 48 35 26 27 21 12 18 30 45 76 80 83 81 75 72 72 73 74 72 78 78 76 72
65 71 72 72 76 74 74 76 73 73 65 64 57 52 58 59 54 57 58 56 47 26 20 27 12 18 23 22 23 34 61 71 72 72 73 74 76 75 73 71 70 70 70
63 68 72 76 76 75 71 73 71 73 72 64 68 68 58 58 62 61 60 58 48 19 17 12 23 24 22 33 19 12 15 34 79 82 83 81 80 78 76 74 72 71 71
62 68 72 79 76 71 71 69 68 70 73 75 63 61 58 52 74 65 63 62 35 16 12 16 23 18 24 27 13 12 14 17 79 84 86 85 82 80 77 77 76 76 76
65 65 73 79 73 71 70 67 69 67 64 73 67 61 63 74 61 42 54 43 24 15 13 20 18 16 19 22 12 11 9 16 82 85 85 84 82 79 78 78 78 78 78
72 71 80 79 72 71 72 68 66 62 55 40 44 55 62 73 64 62 43 48 41 16 16 11 19 16 26 15 14 14 19 79 82 79 80 83 82 79 79 78 79 78 77
81 84 84 80 74 73 73 60 58 54 43 43 46 47 50 64 75 70 64 54 46 40 26 21 31 27 33 22 18 21 23 30 79 79 77 79 81 80 81 80 78 80 95
88 84 85 81 77 76 68 62 63 54 54 40 34 33 34 31 33 41 64 52 55 49 39 27 27 34 36 35 38 38 31 38 78 83 76 77 77 80 80 77 76 73 80
79 75 85 83 80 75 66 66 54 41 32 31 31 27 26 30 34 37 49 62 43 48 51 29 25 31 39 45 44 40 65 45 85 84 83 80 84 84 82 80 78 77 76
79 80 87 84 79 69 57 43 31 23 21 18 19 25 30 39 41 43 47 58 67 46 39 56 40 34 43 38 49 74 73 67 85 87 88 87 87 83 84 82 79 77 84
87 90 88 81 71 56 40 29 22 22 18 24 29 32 33 35 42 48 50 60 73 81 68 65 55 63 32 29 38 51 56 48 77 84 87 82 82 83 83 86 89 91 95
92 90 84 72 56 37 27 20 18 19 20 22 28 29 29 34 40 41 44 53 71 94 93 71 69 68 58 75 76 72 72 82 81 83 80 81 78 85 90 96 96 100 100
93 89 77 57 38 26 23 18 18 21 19 25 24 29 32 34 37 36 41 50 65 77 93 79 76 74 77 80 81 85 85 83 81 81 83 73 74 86 88 97 100 100 100
90 79 64 43 29 24 22 21 20 22 22 25 27 29 30 31 29 35 48 64 64 75 92 90 84 83 82 82 83 81 80 79 78 82 79 80 85 91 94 99 100 100 99
82 66 45 32 26 24 25 25 24 27 27 30 27 26 26 27 38 49 58 48 77 90 91 88 83 80 81 80 81 78 78 76 78 77 79 85 93 95 97 100 99 100 99
65 47 41 34 34 41 29 30 30 30 36 29 29 27 32 42 44 40 62 80 92 92 88 86 82 85 81 81 80 79 80 80 79 77 83 94 93 98 98 98 98 100 100
50 50 55 62 46 37 38 36 34 35 30 25 30 33 33 32 32 38 54 90 91 88 87 86 84 82 76 79 77 80 93 88 82 79 86 98 95 94 98 98 100 99 99
75 77 75 60 56 59 57 49 40 31 24 28 30 29 34 37 36 48 72 77 76 78 88 90 90 86 81 79 83 84 81 83 90 89 98 98 94 98 97 98 100 99 100
77 67 68 66 66 83 66 53 38 22 28 31 33 38 38 42 49 91 87 84 82 80 86 96 94 94 94 93 94 91 92 93 93 87 94 96 95 99 97 97 100 99 100
76 66 62 63 64 88 65 46 24 34 32 39 47 46 48 52 88 91 88 91 92 78 85 95 96 82 92 92 91 89 90 95 89 87 91 100 95 92 84 98 99 100 100
60 61 62 62 64 64 60 35 42 34 44 54 52 50 54 81 91 88 89 94 95 97 97 91 76 78 90 90 92 90 97 99 97 91 89 98 96 98 90 93 95 100 99
Wind_Speed
9 8 9 9 8 7 7 6 6 6 6 6 6 5 5 6 6 6 6 6 6 6 8 9 10 10 11 11 11 12 12 12 12 13 14 15 15 16 17 17 17 18 18
7 8 8 7 6 6 6 6 6 6 5 5 5 5 5 5 5 5 6 6 7 7 7 7 9 10 11 11 11 12 12 13 14 14 15 16 17 18 18 19 19 19 20
9 8 7 5 5 5 5 5 5 5 5 6 4 4 3 3 4 6 7 8 8 8 9 10 10 11 13 14 14 14 14 14 15 16 16 17 18 19 20 20 21 21 22
9 7 6 5 5 4 4 5 5 5 6 7 6 5 3 5 8 9 11 12 13 13 12 11 11 12 13 14 15 15 15 16 17 18 19 20 21 22 22 22 23 24 25
9 7 7 5 4 3 4 4 5 6 7 8 6 8 10 10 11 13 14 13 12 12 11 11 12 13 14 14 15 16 16 16 17 19 20 21 22 22 23 25 26 28 27
9 8 8 5 3 2 3 3 4 5 7 7 10 14 15 13 13 13 12 12 13 14 14 13 15 15 15 15 16 18 17 19 20 21 22 22 22 23 25 27 27 28 30
8 7 5 5 3 2 2 2 2 4 8 6 8 9 11 13 11 11 9 8 10 17 14 12 16 15 15 17 17 18 20 21 22 22 22 23 23 24 25 26 27 28 29
9 8 7 6 4 2 2 2 2 2 7 10 3 4 2 2 4 7 5 4 9 18 14 17 14 15 18 17 22 24 24 23 22 22 22 23 24 25 26 27 28 29 30
11 9 7 6 4 3 2 2 3 3 5 9 10 3 2 1 2 3 3 1 9 11 13 13 12 16 17 18 26 27 27 26 24 23 23 24 24 26 27 28 29 30 31
16 11 9 7 5 4 2 3 4 5 5 5 7 10 9 5 2 0 1 1 13 12 15 11 11 15 16 20 28 27 27 26 25 25 26 26 26 27 28 30 31 32 32
17 13 11 9 7 5 3 3 3 4 6 7 6 5 7 8 7 2 2 5 9 11 13 10 8 14 11 23 27 28 28 25 24 25 26 26 26 28 29 30 31 33 34
19 16 13 11 9 6 4 4 6 7 8 8 8 8 7 3 3 3 2 4 8 4 8 8 4 13 12 28 27 30 29 28 26 27 28 28 28 30 30 32 33 35 35
21 17 15 14 12 8 7 8 9 8 8 8 8 9 7 6 4 2 1 3 4 5 2 2 7 11 17 28 27 32 31 30 27 27 29 29 31 31 32 35 36 37 38
23 19 18 17 14 11 11 11 10 9 8 8 8 8 7 7 5 5 3 4 3 3 4 5 12 10 25 29 31 32 28 31 29 28 28 30 31 32 34 36 37 38 40
25 24 21 19 16 14 12 12 11 10 9 8 7 6 6 6 5 5 5 3 1 4 3 5 9 17 32 34 33 29 29 32 30 29 29 31 33 38 36 39 41 41 42
27 25 24 21 19 17 16 15 13 12 10 8 7 6 5 4 3 3 3 3 2 2 4 8 14 29 35 36 35 34 32 33 29 29 31 33 37 39 38 41 43 43 44
31 28 26 24 22 19 17 16 14 13 11 9 7 4 4 3 2 4 5 6 5 4 9 20 20 29 30 29 31 32 32 28 28 29 32 35 39 40 42 45 46 44 44
32 30 28 25 22 20 18 16 15 14 11 10 8 4 2 2 3 6 7 8 8 8 9 18 22 22 27 27 28 28 26 24 27 29 35 34 36 39 45 45 44 44 44
34 32 30 28 25 21 19 15 13 13 12 9 7 4 2 3 5 7 8 9 11 12 11 15 22 21 24 24 26 24 23 25 28 33 33 32 35 40 42 40 40 42 39
36 34 32 29 26 22 17 14 14 13 11 9 6 3 2 5 6 7 9 12 11 12 13 15 19 21 22 22 23 26 28 28 32 34 29 29 37 37 35 35 40 49 35
35 35 27 28 25 20 20 16 13 11 9 8 3 2 4 3 4 7 9 10 11 12 14 17 19 21 22 24 25 27 30 33 32 26 31 35 31 32 34 37 38 41 26
34 33 30 22 24 24 20 18 12 10 7 5 2 3 4 5 7 8 7 9 11 14 16 17 19 20 23 24 27 29 28 28 19 31 40 33 32 29 32 33 35 30 28
33 30 28 26 23 20 19 17 14 8 6 4 3 4 5 7 9 10 12 13 16 15 14 16 18 20 25 26 29 30 28 28 27 34 31 29 28 25 30 28 28 29 15
34 33 30 27 24 20 17 14 11 7 6 4 3 5 7 9 10 10 14 17 18 18 16 15 17 22 25 29 28 29 31 31 28 24 22 20 22 26 28 20 22 24 14
34 34 31 28 24 19 15 12 9 8 5 4 4 6 8 10 11 12 15 15 15 17 21 19 18 24 21 21 21 24 25 24 27 26 23 11 17 26 23 14 20 16 19
35 32 29 24 22 19 12 10 9 6 5 4 5 7 9 9 12 13 12 14 15 20 20 25 26 25 24 22 19 22 25 24 24 20 10 16 15 12 9 7 16 10 17
Wind_Direction
124 119 120 105 95 83 78 77 75 72 71 68 65 66 66 67 71 72 72 68 57 59 52 43 36 30 24 20 14 7 1 353 344 338 333 331 329 328 327 326 324 322 320
144 125 122 111 93 81 80 77 71 69 67 62 54 54 58 64 66 73 77 69 61 59 48 40 36 27 19 12 6 1 356 350 345 339 332 326 323 320 317 316 314 312 310
152 143 127 117 105 82 73 64 62 61 53 49 41 36 49 68 89 87 81 77 72 63 56 50 40 27 19 15 6 357 350 343 338 334 330 325 319 315 312 309 307 304 303
164 165 150 128 112 82 78 68 65 50 47 34 33 41 52 109 104 99 92 86 80 73 62 45 28 13 3 3 4 359 354 350 345 340 334 325 320 318 315 311 308 307 305
180 176 165 156 122 77 82 71 49 47 35 31 58 76 86 113 112 109 100 89 77 60 44 24 9 1 358 357 4 2 358 353 347 341 335 330 326 322 317 312 309 307 304
185 184 168 163 140 94 87 69 58 50 36 55 100 90 91 100 113 117 105 85 63 38 23 13 6 2 359 2 3 6 3 354 347 342 339 334 329 321 315 314 311 309 306
164 165 181 170 160 138 103 76 74 66 46 81 125 106 96 89 112 119 109 86 53 24 16 17 7 9 4 1 1 360 355 350 345 341 336 333 328 327 323 319 316 311 308
199 214 204 180 170 141 95 74 59 105 60 55 119 131 134 138 102 142 115 70 26 9 24 8 14 12 6 13 4 353 347 347 347 342 338 333 331 328 324 320 316 313 310
205 201 200 192 179 151 119 72 79 114 119 61 62 120 143 158 327 197 216 37 17 17 17 14 16 9 9 4 358 353 350 347 345 340 335 331 329 326 323 320 317 313 311
189 186 210 191 181 163 134 119 111 110 112 127 79 67 75 85 62 353 193 294 347 358 9 16 19 4 2 2 353 351 346 347 345 341 335 331 328 326 323 319 316 313 310
186 195 198 193 187 178 158 129 119 118 124 115 118 122 87 86 61 59 307 319 344 358 5 2 6 357 3 354 353 350 353 343 340 338 333 329 325 321 319 316 314 311 308
185 189 192 192 191 188 171 158 148 140 133 122 109 102 99 100 58 45 313 315 316 310 318 345 342 352 352 349 351 353 351 345 337 335 333 329 326 322 319 316 313 310 306
186 192 195 193 193 193 180 164 156 147 134 124 114 107 102 95 90 72 28 310 302 312 301 294 327 336 340 346 346 348 343 345 336 331 330 328 327 324 322 319 315 311 307
196 202 198 196 194 189 176 161 154 145 136 126 115 103 97 88 79 68 62 10 324 296 302 317 323 328 337 341 341 344 337 338 334 329 327 326 326 324 319 317 313 311 309
199 195 197 194 188 182 172 165 162 152 143 129 120 113 96 77 61 51 44 37 49 329 311 315 324 324 333 336 339 339 336 335 334 332 328 326 325 325 321 323 317 314 311
199 194 192 189 185 180 176 170 158 148 144 130 120 115 96 72 49 30 16 358 341 256 286 317 315 321 329 333 336 337 335 337 335 331 327 327 324 322 320 320 319 313 311
197 194 191 187 182 178 173 169 161 155 151 139 128 117 103 72 35 5 358 352 337 297 282 299 307 317 324 327 329 332 333 331 329 329 327 326 325 323 321 319 319 315 313
196 193 187 183 178 173 170 169 163 155 150 141 128 123 95 49 360 359 354 344 334 322 304 301 311 317 319 323 323 325 326 328 327 324 326 325 324 320 321 320 319 318 313
193 188 185 180 173 169 165 161 159 154 144 139 125 113 67 10 359 351 345 333 329 325 316 307 306 314 317 321 322 324 328 329 330 325 324 323 325 325 324 324 324 324 321
189 185 181 174 166 159 155 161 160 154 141 132 115 101 32 8 359 348 335 332 331 329 325 319 314 318 321 326 327 327 330 332 327 325 325 326 325 326 330 328 332 338 333
181 173 165 162 158 161 164 168 161 146 147 115 113 71 36 26 350 334 330 335 334 330 328 324 322 323 328 333 334 327 320 323 326 325 327 323 325 326 334 339 343 341 352
167 161 161 176 162 157 162 158 156 152 139 117 155 66 29 349 343 343 342 338 332 332 324 323 320 321 321 322 321 320 318 325 319 332 327 320 328 326 331 340 345 352 1
164 163 161 164 159 151 153 152 153 149 135 131 80 31 2 352 345 345 347 341 337 336 323 315 313 314 315 317 316 318 317 315 314 318 317 315 324 323 333 345 350 358 9
166 158 161 161 153 145 149 146 146 138 143 108 53 9 356 349 352 347 342 339 337 335 341 331 318 316 312 313 314 311 310 309 309 315 321 305 324 325 329 349 2 31 39
160 160 159 155 149 148 145 150 139 151 120 86 36 12 358 352 359 350 341 335 327 339 344 337 321 320 320 320 324 321 317 313 310 318 322 294 318 322 327 349 7 42 56
157 156 152 151 154 139 141 146 151 122 106 66 29 15 11 1 350 347 341 335 336 343 336 329 330 336 337 334 324 313 309 302 307 317 321 328 317 336 318 328 359 40 75